Tracking 28790 objects as of 19-Apr-2024
HD Live streaming from Space Station
objects crossing your sky now

FENGYUN 1C DEB

Track FENGYUN 1C DEB now!
10-day predictions


NORAD ID: 30887
Int'l Code: 1999-025AXZ
Perigee: 568.3 km
Apogee: 977.1 km
Inclination: 98.4 °
Period: 100.1 minutes
Semi major axis: 7143 km
RCS: 0.0043 m2 (small)
Launch date: May 10, 1999
Source: People's Republic of China (PRC)
Launch site: Taiyaun Space Center, China (TSC)

Note: This is SATELLITE DEBRIS
Your satellite tracking list
Your tracking list is empty




NASA's NSSDC Master Catalog

Two Line Element Set (TLE):
1 30887U 99025AXZ 24109.10255097  .00005594  00000-0  11632-2 0  9994
2 30887  98.4449 167.2528 0286076 308.0308  49.5368 14.37866114894601
Source of the keplerian elements: AFSPC